User: anonymous
Location: Mt. Chestnut Observatory
(40.9038°N, 79.9956°W)
Time: 04:14:47
(UTC-04:00)
Language:

Cosmos 2034 Rocket - Orbit

View from above orbital plane
View from above orbital plane
View from above satellite
View from above satellite

Ground track
Ground track

The orbit data is extracted from the following two-line orbital elements,

1 20150U 89059B   14241.05610993  .00000017  00000-0  24255-5 0   187
2 20150 082.9406 133.1069 0027649 258.6814 218.4102 13.75584256259723
Epoch (UTC): 29 August 2014 01:20:47
Eccentricity: 0.0027649
inclination: 82.9406°
perigee height: 959 km
apogee height: 1000 km
right ascension of ascending node: 133.1069°
argument of perigee: 258.6814°
revolutions per day: 13.75584256
mean anomaly at epoch: 218.4102°
orbit number at epoch: 25972

The dashed part of the orbit path shows where the satellite is in the earth's shadow,  

DLR